Time,TemperatureF,DewpointF,PressureIn,WindDirection,WindDirectionDegrees,WindSpeedMPH,WindSpeedGustMPH,Humidity,HourlyPrecipIn,Conditions,Clouds,dailyrainin,SolarRadiationWatts/m^2,SoftwareType,DateUTC
2013-02-11 00:11:00,30.0,30.0,-100.00,NW,319,11.0,19.0,100,0.00,,,0.16,1.000000,,2013-02-11 06:11:00,
2013-02-11 00:21:00,30.0,30.0,-100.00,NW,319,11.0,19.0,100,0.00,,,0.16,1.000000,,2013-02-11 06:21:00,
2013-02-11 00:32:00,30.0,30.0,-100.00,NW,319,11.0,19.0,100,0.00,,,0.16,1.000000,,2013-02-11 06:32:00,
2013-02-11 00:42:00,30.0,30.0,-100.00,NW,319,11.0,19.0,100,0.00,,,0.16,1.000000,,2013-02-11 06:42:00,
2013-02-11 01:11:00,29.0,29.0,-100.00,NW,310,13.0,19.0,100,0.00,,,0.16,1.000000,,2013-02-11 07:11:00,
2013-02-11 01:21:00,29.0,29.0,-100.00,NW,310,13.0,19.0,100,0.00,,,0.16,1.000000,,2013-02-11 07:21:00,
2013-02-11 01:32:00,29.0,29.0,-100.00,NW,310,13.0,19.0,100,0.00,,,0.16,1.000000,,2013-02-11 07:32:00,
2013-02-11 01:41:00,29.0,29.0,-100.00,NW,310,13.0,19.0,100,0.00,,,0.16,1.000000,,2013-02-11 07:41:00,
2013-02-11 02:11:00,29.0,29.0,-100.00,NW,310,15.0,24.0,100,0.00,,,0.16,1.000000,,2013-02-11 08:11:00,
2013-02-11 02:21:00,29.0,29.0,-100.00,NW,310,15.0,24.0,100,0.00,,,0.16,1.000000,,2013-02-11 08:21:00,
2013-02-11 02:32:00,29.0,29.0,-100.00,NW,310,15.0,24.0,100,0.00,,,0.16,1.000000,,2013-02-11 08:32:00,
2013-02-11 02:42:00,29.0,29.0,-100.00,NW,310,15.0,24.0,100,0.00,,,0.16,1.000000,,2013-02-11 08:42:00,
2013-02-11 03:12:00,29.0,29.0,-100.00,NW,310,15.0,22.0,100,0.00,,,0.16,1.000000,,2013-02-11 09:12:00,
2013-02-11 03:21:00,29.0,29.0,-100.00,NW,310,15.0,22.0,100,0.00,,,0.16,1.000000,,2013-02-11 09:21:00,
2013-02-11 03:32:00,29.0,29.0,-100.00,NW,310,15.0,22.0,100,0.00,,,0.16,1.000000,,2013-02-11 09:32:00,
2013-02-11 03:41:00,29.0,29.0,-100.00,NW,310,15.0,22.0,100,0.00,,,0.16,1.000000,,2013-02-11 09:41:00,
2013-02-11 04:11:00,29.0,29.0,-100.00,NW,309,16.0,24.0,100,0.00,,,0.16,1.000000,,2013-02-11 10:11:00,
2013-02-11 04:21:00,29.0,29.0,-100.00,NW,309,16.0,24.0,100,0.00,,,0.16,1.000000,,2013-02-11 10:21:00,
2013-02-11 04:31:00,29.0,29.0,-100.00,NW,309,16.0,24.0,100,0.00,,,0.16,1.000000,,2013-02-11 10:31:00,
2013-02-11 04:42:00,29.0,29.0,-100.00,NW,309,16.0,24.0,100,0.00,,,0.16,1.000000,,2013-02-11 10:42:00,
2013-02-11 05:11:00,28.0,27.0,-100.00,NW,307,16.0,25.0,96,0.00,,,0.16,1.000000,,2013-02-11 11:11:00,
2013-02-11 05:22:00,28.0,27.0,-100.00,NW,307,16.0,25.0,96,0.00,,,0.16,1.000000,,2013-02-11 11:22:00,
2013-02-11 05:32:00,28.0,27.0,-100.00,NW,307,16.0,25.0,96,0.00,,,0.16,1.000000,,2013-02-11 11:32:00,
2013-02-11 05:42:00,28.0,27.0,-100.00,NW,307,16.0,25.0,96,0.00,,,0.16,1.000000,,2013-02-11 11:42:00,
2013-02-11 06:12:00,26.0,23.0,-100.00,WNW,302,16.0,26.0,89,0.00,,,0.16,1.000000,,2013-02-11 12:12:00,
2013-02-11 06:22:00,26.0,23.0,-100.00,WNW,302,16.0,26.0,89,0.00,,,0.16,1.000000,,2013-02-11 12:22:00,
2013-02-11 06:32:00,26.0,23.0,-100.00,WNW,302,16.0,26.0,89,0.00,,,0.16,1.000000,,2013-02-11 12:32:00,
2013-02-11 06:42:00,26.0,23.0,-100.00,WNW,302,16.0,26.0,89,0.00,,,0.16,1.000000,,2013-02-11 12:42:00,
2013-02-11 07:12:00,25.0,21.0,-100.00,WNW,299,16.0,26.0,86,0.00,,,-99.99,1.000000,,2013-02-11 13:12:00,
2013-02-11 07:22:00,25.0,21.0,-100.00,WNW,299,16.0,26.0,86,0.00,,,-99.99,1.000000,,2013-02-11 13:22:00,
2013-02-11 07:32:00,25.0,21.0,-100.00,WNW,299,16.0,26.0,86,0.00,,,-99.99,1.000000,,2013-02-11 13:32:00,
2013-02-11 07:42:00,25.0,21.0,-100.00,WNW,299,16.0,26.0,86,0.00,,,-99.99,1.000000,,2013-02-11 13:42:00,
2013-02-11 08:11:00,24.0,23.0,-100.00,WNW,299,16.0,26.0,94,0.00,,,-99.99,4.000000,,2013-02-11 14:11:00,
2013-02-11 08:22:00,24.0,23.0,-100.00,WNW,299,16.0,26.0,94,0.00,,,-99.99,4.000000,,2013-02-11 14:22:00,
2013-02-11 08:33:00,24.0,23.0,-100.00,WNW,299,16.0,26.0,94,0.00,,,-99.99,4.000000,,2013-02-11 14:33:00,
2013-02-11 08:42:00,24.0,23.0,-100.00,WNW,299,16.0,26.0,94,0.00,,,-99.99,4.000000,,2013-02-11 14:42:00,
2013-02-11 09:11:00,25.0,21.0,-100.00,WNW,302,17.0,25.0,83,0.00,,,0.16,66.000000,,2013-02-11 15:11:00,
2013-02-11 09:22:00,25.0,21.0,-100.00,WNW,302,17.0,25.0,83,0.00,,,0.16,66.000000,,2013-02-11 15:22:00,
2013-02-11 09:32:00,25.0,21.0,-100.00,WNW,302,17.0,25.0,83,0.00,,,0.16,66.000000,,2013-02-11 15:32:00,
2013-02-11 09:42:00,25.0,21.0,-100.00,WNW,302,17.0,25.0,83,0.00,,,0.16,66.000000,,2013-02-11 15:42:00,
2013-02-11 10:02:00,27.0,21.0,-100.00,WNW,297,19.0,28.0,78,0.00,,,0.16,218.000000,,2013-02-11 16:02:00,
2013-02-11 10:12:00,27.0,21.0,-100.00,WNW,297,19.0,28.0,78,0.00,,,0.16,218.000000,,2013-02-11 16:12:00,
2013-02-11 10:22:00,27.0,21.0,-100.00,WNW,297,19.0,28.0,78,0.00,,,0.16,218.000000,,2013-02-11 16:22:00,
2013-02-11 10:32:00,27.0,21.0,-100.00,WNW,297,19.0,28.0,78,0.00,,,0.16,218.000000,,2013-02-11 16:32:00,
2013-02-11 10:42:00,27.0,21.0,-100.00,WNW,297,19.0,28.0,78,0.00,,,0.16,218.000000,,2013-02-11 16:42:00,
2013-02-11 11:11:00,26.0,19.0,-100.00,WNW,299,20.0,28.0,75,0.00,,,0.16,289.000000,,2013-02-11 17:11:00,
2013-02-11 11:22:00,26.0,19.0,-100.00,WNW,299,20.0,28.0,75,0.00,,,0.16,289.000000,,2013-02-11 17:22:00,
2013-02-11 11:32:00,26.0,19.0,-100.00,WNW,299,20.0,28.0,75,0.00,,,0.16,289.000000,,2013-02-11 17:32:00,
2013-02-11 11:42:00,26.0,19.0,-100.00,WNW,299,20.0,28.0,75,0.00,,,0.16,289.000000,,2013-02-11 17:42:00,
2013-02-11 12:11:00,27.0,19.0,-100.00,WNW,299,19.0,31.0,72,0.00,,,0.16,423.000000,,2013-02-11 18:11:00,
2013-02-11 12:22:00,27.0,19.0,-100.00,WNW,299,19.0,31.0,72,0.00,,,0.16,423.000000,,2013-02-11 18:22:00,
2013-02-11 12:32:00,27.0,19.0,-100.00,WNW,299,19.0,31.0,72,0.00,,,0.16,423.000000,,2013-02-11 18:32:00,
2013-02-11 12:42:00,27.0,19.0,-100.00,WNW,299,19.0,31.0,72,0.00,,,0.16,423.000000,,2013-02-11 18:42:00,
2013-02-11 13:11:00,26.0,19.0,-100.00,WNW,299,19.0,28.0,73,0.00,,,0.16,307.000000,,2013-02-11 19:11:00,
2013-02-11 13:22:00,26.0,19.0,-100.00,WNW,299,19.0,28.0,73,0.00,,,0.16,307.000000,,2013-02-11 19:22:00,
2013-02-11 13:32:00,26.0,19.0,-100.00,WNW,299,19.0,28.0,73,0.00,,,0.16,307.000000,,2013-02-11 19:32:00,
2013-02-11 13:41:00,26.0,19.0,-100.00,WNW,299,19.0,28.0,73,0.00,,,0.16,307.000000,,2013-02-11 19:41:00,
2013-02-11 14:11:00,26.0,18.0,-100.00,WNW,303,19.0,31.0,71,0.00,,,0.16,307.000000,,2013-02-11 20:11:00,
2013-02-11 14:21:00,26.0,18.0,-100.00,WNW,303,19.0,31.0,71,0.00,,,0.16,307.000000,,2013-02-11 20:21:00,
2013-02-11 14:32:00,26.0,18.0,-100.00,WNW,303,19.0,31.0,71,0.00,,,0.16,307.000000,,2013-02-11 20:32:00,
2013-02-11 14:42:00,26.0,18.0,-100.00,WNW,303,19.0,31.0,71,0.00,,,0.16,307.000000,,2013-02-11 20:42:00,
2013-02-11 15:12:00,25.0,17.0,-100.00,WNW,297,17.0,27.0,72,0.00,,,0.16,230.000000,,2013-02-11 21:12:00,
2013-02-11 15:22:00,25.0,17.0,-100.00,WNW,297,17.0,27.0,72,0.00,,,0.16,230.000000,,2013-02-11 21:22:00,
2013-02-11 15:32:00,25.0,17.0,-100.00,WNW,297,17.0,27.0,72,0.00,,,0.16,230.000000,,2013-02-11 21:32:00,
2013-02-11 15:42:00,25.0,17.0,-100.00,WNW,297,17.0,27.0,72,0.00,,,0.16,230.000000,,2013-02-11 21:42:00,
2013-02-11 16:11:00,24.0,17.0,-100.00,WNW,296,15.0,25.0,75,0.00,,,0.16,115.000000,,2013-02-11 22:11:00,
2013-02-11 16:22:00,24.0,17.0,-100.00,WNW,296,15.0,25.0,75,0.00,,,0.16,115.000000,,2013-02-11 22:22:00,
2013-02-11 16:32:00,24.0,17.0,-100.00,WNW,296,15.0,25.0,75,0.00,,,0.16,115.000000,,2013-02-11 22:32:00,
2013-02-11 16:42:00,24.0,17.0,-100.00,WNW,296,15.0,25.0,75,0.00,,,0.16,115.000000,,2013-02-11 22:42:00,
2013-02-11 17:11:00,22.0,15.0,-100.00,WNW,298,17.0,25.0,73,0.00,,,0.16,67.000000,,2013-02-11 23:11:00,
2013-02-11 17:21:00,22.0,15.0,-100.00,WNW,298,17.0,25.0,73,0.00,,,0.16,67.000000,,2013-02-11 23:21:00,
2013-02-11 17:32:00,22.0,15.0,-100.00,WNW,298,17.0,25.0,73,0.00,,,0.16,67.000000,,2013-02-11 23:32:00,
2013-02-11 17:42:00,22.0,15.0,-100.00,WNW,298,17.0,25.0,73,0.00,,,0.16,67.000000,,2013-02-11 23:42:00,
2013-02-11 18:11:00,22.0,14.0,-100.00,WNW,295,14.0,25.0,72,0.00,,,0.07,14.000000,,2013-02-12 00:11:00,
2013-02-11 18:22:00,22.0,14.0,-100.00,WNW,295,14.0,25.0,72,0.00,,,0.07,14.000000,,2013-02-12 00:22:00,
2013-02-11 18:32:00,22.0,14.0,-100.00,WNW,295,14.0,25.0,72,0.00,,,0.07,14.000000,,2013-02-12 00:32:00,
2013-02-11 18:42:00,22.0,14.0,-100.00,WNW,295,14.0,25.0,72,0.00,,,0.07,14.000000,,2013-02-12 00:42:00,
2013-02-11 19:11:00,20.0,13.0,-100.00,WNW,293,14.0,26.0,73,0.00,,,0.04,1.000000,,2013-02-12 01:11:00,
2013-02-11 19:22:00,20.0,13.0,-100.00,WNW,293,14.0,26.0,73,0.00,,,0.04,1.000000,,2013-02-12 01:22:00,
2013-02-11 19:32:00,20.0,13.0,-100.00,WNW,293,14.0,26.0,73,0.00,,,0.04,1.000000,,2013-02-12 01:32:00,
2013-02-11 19:42:00,20.0,13.0,-100.00,WNW,293,14.0,26.0,73,0.00,,,0.04,1.000000,,2013-02-12 01:42:00,
2013-02-11 20:12:00,20.0,13.0,-100.00,WNW,286,8.0,19.0,73,0.00,,,0.02,1.000000,,2013-02-12 02:12:00,
2013-02-11 20:21:00,20.0,13.0,-100.00,WNW,286,8.0,19.0,73,0.00,,,0.02,1.000000,,2013-02-12 02:21:00,
2013-02-11 20:32:00,20.0,13.0,-100.00,WNW,286,8.0,19.0,73,0.00,,,0.02,1.000000,,2013-02-12 02:32:00,
2013-02-11 20:41:00,20.0,13.0,-100.00,WNW,286,8.0,19.0,73,0.00,,,0.02,1.000000,,2013-02-12 02:41:00,
2013-02-11 21:11:00,21.0,15.0,-100.00,West,263,9.0,12.0,76,0.00,,,-99.99,1.000000,,2013-02-12 03:11:00,
2013-02-11 21:21:00,21.0,15.0,-100.00,West,263,9.0,12.0,76,0.00,,,-99.99,1.000000,,2013-02-12 03:21:00,
2013-02-11 21:32:00,21.0,15.0,-100.00,West,263,9.0,12.0,76,0.00,,,-99.99,1.000000,,2013-02-12 03:32:00,
2013-02-11 21:42:00,21.0,15.0,-100.00,West,263,9.0,12.0,76,0.00,,,-99.99,1.000000,,2013-02-12 03:42:00,
2013-02-11 22:11:00,19.0,13.0,-100.00,West,281,8.0,13.0,77,0.00,,,0.00,1.000000,,2013-02-12 04:11:00,
2013-02-11 22:21:00,19.0,13.0,-100.00,West,281,8.0,13.0,77,0.00,,,0.00,1.000000,,2013-02-12 04:21:00,
2013-02-11 22:31:00,19.0,13.0,-100.00,West,281,8.0,13.0,77,0.00,,,0.00,1.000000,,2013-02-12 04:31:00,
2013-02-11 22:41:00,19.0,13.0,-100.00,West,281,8.0,13.0,77,0.00,,,0.00,1.000000,,2013-02-12 04:41:00,
2013-02-11 23:11:00,16.0,11.0,-100.00,West,278,7.0,9.0,81,0.00,,,0.00,1.000000,,2013-02-12 05:11:00,
2013-02-11 23:21:00,16.0,11.0,-100.00,West,278,7.0,9.0,81,0.00,,,0.00,1.000000,,2013-02-12 05:21:00,
2013-02-11 23:32:00,16.0,11.0,-100.00,West,278,7.0,9.0,81,0.00,,,0.00,1.000000,,2013-02-12 05:32:00,
2013-02-11 23:42:00,16.0,11.0,-100.00,West,278,7.0,9.0,81,0.00,,,0.00,1.000000,,2013-02-12 05:42:00,